Showing default

GHGSAT-C3, 52737

Orbit data source: Space-Track

GHGSAT-C3, 52737 is a payload satellite owned by GHG (CA) in SSO that was launched on Wed, 25 May 2022 UTC via an FALCON 9 launch vehicle from the Air Force Eastern Test Range (AFETR). Payload-class satellites include a variety of spacecraft equipped with specific instruments for various scientific and technological missions. These include communications satellites like Starlink; space stations such as the ISS; scientific satellites like the Hubble; Earth observation satellites from companies like Planet Labs, Umbra, and HawkEye 360; GPS; miniature CubeSats for education and research; and military/defense satellites.

Loading next visibility...
Identifier
52737, 2022-057F
Orbit
SSO
Country
Flag of CACA
Related business
Manufacturer
UTIAS-SFL
Mission
Operational Commercial Earth Obs Sci
Bus & Motor
NEMO-V1, Unknown motor
Mass
15 kg wet, 15 kg dry
Launch date (UTC)
2022-05-25 (4 years ago)
Launch vehicle
FALCON 9
Launch site
Air Force Eastern Test Range (AFETR)
Object type
Payload
Rocket body
Debris
Shape & HBR
Box, 1.0 m
Radar Cross Section
0.100 m², Medium (>0.1 m² and < 1m²)

Expand to show TLE details & history
Last TLE update: 1 day ago

TLE from 1 day ago
0 GHGSAT-C3
1 52737U 22057F   26172.34768418  .00005408  00000-0  16480-3 0  9998
2 52737  97.6605 318.1595 0007467 105.9939 254.2126 15.34395594226179
Epoch: 2026-06-21T08:20Z
TLE epoch observation values (Epoch: 2026-06-21T08:20:39.913Z)
Latitude
-0.00002°
Longitude
-76.55605°
Altitude
467.212 km
Speed
7.632 km/s
True Right ascension
21h 12m 38s
True Declination
0° 00' 00"
Sunlit
Object was in full shadow at epoch
Visualization orbit readout
Latitude
Unknown
Longitude
Unknown
Altitude
Unknown
Speed
Unknown
Apparent Right ascension
Unknown
Apparent Declination
Unknown
Sunlit
N/A
Visualization observer readout
Local Sidereal Time
23:21:12
Azimuth
Unknown
Elevation
Unknown
Doppler factor
Unknown
Orbital elements
Apogee altitude
464.78 km
Perigee altitude
454.568 km
Semi-major axis
6,837.811 km
Eccentricity
0.00075
Inclination
97.6605°
RAAN
318.1595°
Arg. of periapsis
105.9939°
True anomaly
254.13028°
Mean anomaly
254.2126°
Eccentric anomaly
254.17144°
Mean motion
3.83855 °/min
Orbital period
93.79 mins
BSTAR
0.0001648
Loading maneuver chart data...
Computing Atmospheric mass density...

Documentation

Showing up to 5 results
|